LZ1HCO-25 Weather Reports


Display with metric or nautical units.
time (UTC)temp
F
wind
direction
speed
MPH
gust
MPH
rain 1hr
in
rain 24hr
in
rain mn
in
humidity
%
barometer
mb
20260503210801 41 0 0.0 0.0 0.00 0.00 0.00 99 973.0
20260503210249 41 0 0.0 0.0 0.00 0.00 0.00 99 973.0
20260503205738 41 0 0.0 0.0 0.00 0.00 0.00 99 973.0
20260503205226 41 0 0.0 0.0 0.00 0.00 0.00 99 973.0
20260503204715 41 0 0.0 0.0 0.00 0.00 0.00 99 973.0
20260503204204 40 0 0.0 0.0 0.00 0.00 0.00 99 973.0
20260503203652 41 0 0.0 0.0 0.00 0.00 0.00 99 973.0
20260503203141 40 0 0.0 0.0 0.00 0.00 0.00 99 973.0
20260503202630 41 0 0.0 0.0 0.00 0.00 0.00 99 973.0
20260503202118 41 0 0.0 0.0 0.00 0.00 0.00 99 973.0
20260503201607 40 0 0.0 0.0 0.00 0.00 0.00 99 973.0
20260503201055 42 0 0.0 0.0 0.00 0.00 0.00 99 973.0
20260503200544 41 0 0.0 0.0 0.00 0.00 0.00 99 973.0
20260503200033 41 0 0.0 0.0 0.00 0.00 0.00 99 973.0
20260503195521 41 0 0.0 0.0 0.00 0.00 0.00 99 973.0
20260503195010 42 0 0.0 0.0 0.00 0.00 0.00 99 973.0
20260503194459 41 0 0.0 0.0 0.00 0.00 0.00 99 973.0
20260503193947 42 0 0.0 0.0 0.00 0.00 0.00 99 973.0
20260503193436 41 0 0.0 0.0 0.00 0.00 0.00 99 973.0
20260503192925 42 0 0.0 0.0 0.00 0.00 0.00 99 974.0
20260503192413 43 0 0.0 0.0 0.00 0.00 0.00 99 973.0
20260503191902 42 0 0.0 0.0 0.00 0.00 0.00 99 973.0
20260503191351 43 0 0.0 0.0 0.00 0.00 0.00 99 974.0
20260503190839 43 0 0.0 0.0 0.00 0.00 0.00 99 973.0
20260503190328 41 0 0.0 0.0 0.00 0.00 0.00 99 973.0
20260503185816 42 0 0.0 0.0 0.00 0.00 0.00 99 973.0
20260503185305 41 0 0.0 0.0 0.00 0.00 0.00 99 973.0
20260503184754 42 0 0.0 0.0 0.00 0.00 0.00 99 973.0
20260503184242 43 0 0.0 0.0 0.00 0.00 0.00 99 973.0
20260503183731 43 0 0.0 0.0 0.00 0.00 0.00 99 973.0
20260503183220 43 0 0.0 0.0 0.00 0.00 0.00 99 973.0
20260503182708 43 0 0.0 0.0 0.00 0.00 0.00 99 973.0
20260503182157 44 0 0.0 0.0 0.00 0.00 0.00 99 973.0
20260503181645 44 0 0.0 0.0 0.00 0.00 0.00 99 973.0
20260503181134 45 0 0.0 0.0 0.00 0.00 0.00 99 973.0
20260503180623 45 0 0.0 0.0 0.00 0.00 0.00 99 973.0
20260503180112 45 0 0.0 0.0 0.00 0.00 0.00 99 973.0
20260503175600 45 0 0.0 0.0 0.00 0.00 0.00 99 973.0
20260503175049 45 0 0.0 0.0 0.00 0.00 0.00 99 973.0
20260503174537 46 0 0.0 0.0 0.00 0.00 0.00 99 973.0
20260503174026 46 0 0.0 0.0 0.00 0.00 0.00 99 973.0
20260503173515 45 0 0.0 0.0 0.00 0.00 0.00 99 973.0
20260503173003 46 0 0.0 0.0 0.00 0.00 0.00 99 973.0
20260503172452 48 0 0.0 0.0 0.00 0.00 0.00 99 973.0
20260503171941 48 0 0.0 0.0 0.00 0.00 0.00 99 973.0
20260503171429 48 0 0.0 0.0 0.00 0.00 0.00 99 973.0
20260503170918 47 0 0.0 0.0 0.00 0.00 0.00 99 973.0
20260503170407 50 0 0.0 0.0 0.00 0.00 0.00 87 973.0
20260503160150 54 0 0.0 0.0 0.00 0.00 0.00 58 973.0
20260503150956 57 0 0.0 0.0 0.00 0.00 0.00 58 973.0
20260503150445 56 0 0.0 0.0 0.00 0.00 0.00 57 973.0
20260503131336 56 0 0.0 0.0 0.00 0.00 0.00 55 974.0
20260503130825 55 0 0.0 0.0 0.00 0.00 0.00 55 974.0
20260503130314 56 0 0.0 0.0 0.00 0.00 0.00 58 974.0
20260503110352 53 0 0.0 0.0 0.00 0.00 0.00 65 975.0
20260503100136 52 0 0.0 0.0 0.00 0.00 0.00 89 975.0
20260503090431 54 0 0.0 0.0 0.00 0.00 0.00 81 975.0
20260503081535 49 0 0.0 0.0 0.00 0.00 0.00 99 976.0
20260503081023 49 0 0.0 0.0 0.00 0.00 0.00 99 976.0
20260503080512 51 0 0.0 0.0 0.00 0.00 0.00 99 976.0
20260503072853 49 0 0.0 0.0 0.00 0.00 0.00 99 976.0
20260503072341 49 0 0.0 0.0 0.00 0.00 0.00 99 976.0
20260503071830 48 0 0.0 0.0 0.00 0.00 0.00 99 976.0
20260503071319 48 0 0.0 0.0 0.00 0.00 0.00 99 976.0
20260503070807 49 0 0.0 0.0 0.00 0.00 0.00 99 976.0
20260503070256 50 0 0.0 0.0 0.00 0.00 0.00 99 976.0
20260503055017 47 0 0.0 0.0 0.00 0.00 0.00 99 976.0
20260503054505 48 0 0.0 0.0 0.00 0.00 0.00 99 976.0
20260503053954 47 0 0.0 0.0 0.00 0.00 0.00 99 975.0
20260503053443 46 0 0.0 0.0 0.00 0.00 0.00 99 975.0
20260503052931 45 0 0.0 0.0 0.00 0.00 0.00 99 975.0
20260503052420 45 0 0.0 0.0 0.00 0.00 0.00 99 975.0
20260503051909 45 0 0.0 0.0 0.00 0.00 0.00 99 975.0
20260503051357 44 0 0.0 0.0 0.00 0.00 0.00 99 975.0
20260503050846 45 0 0.0 0.0 0.00 0.00 0.00 99 975.0
20260503050335 44 0 0.0 0.0 0.00 0.00 0.00 99 975.0
20260503045823 43 0 0.0 0.0 0.00 0.00 0.00 99 975.0
20260503045312 42 0 0.0 0.0 0.00 0.00 0.00 99 975.0
20260503044800 42 0 0.0 0.0 0.00 0.00 0.00 99 975.0
20260503044249 41 0 0.0 0.0 0.00 0.00 0.00 99 975.0
20260503043738 41 0 0.0 0.0 0.00 0.00 0.00 99 975.0
20260503043226 40 0 0.0 0.0 0.00 0.00 0.00 99 975.0
20260503042715 40 0 0.0 0.0 0.00 0.00 0.00 99 975.0
20260503042204 40 0 0.0 0.0 0.00 0.00 0.00 99 975.0
20260503041652 39 0 0.0 0.0 0.00 0.00 0.00 99 975.0
20260503041141 40 0 0.0 0.0 0.00 0.00 0.00 99 975.0
20260503040631 40 0 0.0 0.0 0.00 0.00 0.00 99 975.0
20260503040118 40 0 0.0 0.0 0.00 0.00 0.00 99 975.0
20260503035607 39 0 0.0 0.0 0.00 0.00 0.00 99 975.0
20260503035055 38 0 0.0 0.0 0.00 0.00 0.00 99 975.0
20260503034544 38 0 0.0 0.0 0.00 0.00 0.00 99 975.0
20260503034033 39 0 0.0 0.0 0.00 0.00 0.00 99 975.0
20260503033521 38 0 0.0 0.0 0.00 0.00 0.00 99 975.0
20260503033010 39 0 0.0 0.0 0.00 0.00 0.00 99 975.0
20260503032459 39 0 0.0 0.0 0.00 0.00 0.00 99 975.0
20260503031947 38 0 0.0 0.0 0.00 0.00 0.00 99 975.0
20260503031436 38 0 0.0 0.0 0.00 0.00 0.00 99 975.0
20260503030925 38 0 0.0 0.0 0.00 0.00 0.00 99 975.0
20260503030413 38 0 0.0 0.0 0.00 0.00 0.00 99 975.0
20260503025902 39 0 0.0 0.0 0.00 0.00 0.00 99 975.0
20260503025350 39 0 0.0 0.0 0.00 0.00 0.00 99 975.0
20260503024839 40 0 0.0 0.0 0.00 0.00 0.00 99 975.0
20260503024328 40 0 0.0 0.0 0.00 0.00 0.00 99 975.0
20260503023816 40 0 0.0 0.0 0.00 0.00 0.00 99 975.0
20260503023305 39 0 0.0 0.0 0.00 0.00 0.00 99 974.0
20260503022754 40 0 0.0 0.0 0.00 0.00 0.00 99 974.0
20260503022242 40 0 0.0 0.0 0.00 0.00 0.00 99 974.0
20260503021731 41 0 0.0 0.0 0.00 0.00 0.00 99 974.0
20260503021220 41 0 0.0 0.0 0.00 0.00 0.00 99 974.0
20260503020708 40 0 0.0 0.0 0.00 0.00 0.00 99 974.0
20260503020157 42 0 0.0 0.0 0.00 0.00 0.00 99 974.0
20260503015646 41 0 0.0 0.0 0.00 0.00 0.00 99 974.0
20260503015134 41 0 0.0 0.0 0.00 0.00 0.00 99 974.0
20260503014623 42 0 0.0 0.0 0.00 0.00 0.00 99 974.0
20260503014111 40 0 0.0 0.0 0.00 0.00 0.00 99 974.0
20260503013600 40 0 0.0 0.0 0.00 0.00 0.00 99 974.0
20260503013049 41 0 0.0 0.0 0.00 0.00 0.00 99 974.0
20260503012537 41 0 0.0 0.0 0.00 0.00 0.00 99 974.0
20260503012026 42 0 0.0 0.0 0.00 0.00 0.00 99 974.0
20260503011515 42 0 0.0 0.0 0.00 0.00 0.00 99 974.0
20260503011004 42 0 0.0 0.0 0.00 0.00 0.00 99 974.0
20260503010452 42 0 0.0 0.0 0.00 0.00 0.00 99 974.0
20260503005941 42 0 0.0 0.0 0.00 0.00 0.00 99 974.0
20260503005429 41 0 0.0 0.0 0.00 0.00 0.00 99 975.0
20260503004918 40 0 0.0 0.0 0.00 0.00 0.00 99 975.0
20260503004407 41 0 0.0 0.0 0.00 0.00 0.00 99 975.0
20260503003855 42 0 0.0 0.0 0.00 0.00 0.00 99 974.0
20260503003344 42 0 0.0 0.0 0.00 0.00 0.00 99 975.0
20260503002832 42 0 0.0 0.0 0.00 0.00 0.00 99 975.0
20260503002321 40 0 0.0 0.0 0.00 0.00 0.00 99 975.0
20260503001810 41 0 0.0 0.0 0.00 0.00 0.00 99 975.0
20260503001258 41 0 0.0 0.0 0.00 0.00 0.00 99 975.0
20260503000747 42 0 0.0 0.0 0.00 0.00 0.00 99 975.0
20260503000236 41 0 0.0 0.0 0.00 0.00 0.00 99 975.0
20260502235724 43 0 0.0 0.0 0.00 0.00 0.00 99 975.0
20260502235213 43 0 0.0 0.0 0.00 0.00 0.00 99 975.0
20260502234702 42 0 0.0 0.0 0.00 0.00 0.00 99 975.0
20260502234150 41 0 0.0 0.0 0.00 0.00 0.00 99 975.0
20260502233639 42 0 0.0 0.0 0.00 0.00 0.00 99 975.0
20260502233127 43 0 0.0 0.0 0.00 0.00 0.00 99 975.0
20260502232616 43 0 0.0 0.0 0.00 0.00 0.00 99 975.0
20260502232105 43 0 0.0 0.0 0.00 0.00 0.00 99 975.0
20260502231553 43 0 0.0 0.0 0.00 0.00 0.00 99 975.0
20260502231042 44 0 0.0 0.0 0.00 0.00 0.00 99 975.0
20260502230531 44 0 0.0 0.0 0.00 0.00 0.00 99 975.0
20260502230019 43 0 0.0 0.0 0.00 0.00 0.00 99 975.0
20260502225508 44 0 0.0 0.0 0.00 0.00 0.00 99 975.0
20260502224957 44 0 0.0 0.0 0.00 0.00 0.00 99 975.0
20260502224445 44 0 0.0 0.0 0.00 0.00 0.00 99 975.0
20260502223934 44 0 0.0 0.0 0.00 0.00 0.00 99 975.0
20260502223423 44 0 0.0 0.0 0.00 0.00 0.00 99 975.0
20260502222911 44 0 0.0 0.0 0.00 0.00 0.00 99 975.0
20260502222400 43 0 0.0 0.0 0.00 0.00 0.00 99 975.0
20260502221848 44 0 0.0 0.0 0.00 0.00 0.00 99 975.0
20260502221337 44 0 0.0 0.0 0.00 0.00 0.00 99 975.0
20260502220826 44 0 0.0 0.0 0.00 0.00 0.00 99 975.0
20260502220314 44 0 0.0 0.0 0.00 0.00 0.00 99 975.0
20260502215803 44 0 0.0 0.0 0.00 0.00 0.00 99 975.0
20260502215252 44 0 0.0 0.0 0.00 0.00 0.00 99 975.0
20260502214740 45 0 0.0 0.0 0.00 0.00 0.00 99 975.0
20260502214229 45 0 0.0 0.0 0.00 0.00 0.00 99 975.0
20260502213718 45 0 0.0 0.0 0.00 0.00 0.00 99 975.0
20260502213206 44 0 0.0 0.0 0.00 0.00 0.00 99 975.0
20260502212655 45 0 0.0 0.0 0.00 0.00 0.00 99 975.0
20260502212143 45 0 0.0 0.0 0.00 0.00 0.00 99 975.0
20260502211632 44 0 0.0 0.0 0.00 0.00 0.00 99 975.0